[[[{"header":{"parameterUnit":"kt","parameterCategory":2,"dx":1,"dy":1,"la1":30.253999710083008,"la2":30.299108505249023,"lo1":-89.0895004272461,"lo2":-89.04439544677734,"nx":28,"ny":28,"refTime":"2022-10-13T21:00:00:Z","depth":0,"parameterNumber":1,"parameterNumberName":"U-component_of_WINDS"},"data":[-4.4646,-4.4847,-4.486,-4.5098,-4.5151,-4.5318,-4.5382,-4.5468,-4.5541,-4.5745,-4.5866,-4.5904,-4.5987,-4.6138,-4.6274,-4.6289,-4.6348,-4.6408,-4.6417,-4.6127,-4.6088,-4.6051,-4.6004,-4.6419,-4.642,-4.6717,-4.672,-4.6722,-4.4432,-4.4485,-4.4613,-4.4748,-4.486,-4.4809,-4.4913,-4.5012,-4.5164,-4.5255,-4.5374,-4.5557,-4.5705,-4.5769,-4.5916,-4.6016,-4.6005,-4.6055,-4.6052,-4.6067,-4.5755,-4.5704,-4.6063,-4.6063,-4.6063,-4.6062,-4.6062,-4.6062,-4.4048,-4.4168,-4.4256,-4.4396,-4.4468,-4.4559,-4.4678,-4.4719,-4.4849,-4.4999,-4.4992,-4.5167,-4.5264,-4.545,-4.5517,-4.5657,-4.5604,-4.5668,-4.5685,-4.5702,-4.5719,-4.5294,-4.5682,-4.5681,-4.568,-4.5679,-4.5679,0,-4.3772,-4.3775,-4.3899,-4.4027,-4.4131,-4.4233,-4.433,-4.4404,-4.4419,-4.4526,-4.4683,-4.4777,-4.4964,-4.5118,-4.5259,-4.5317,-4.5284,-4.528,-4.5325,-4.5334,-4.5323,-4.5336,-4.4832,-4.5271,-4.5268,-4.5265,-4.5263,-4.5262,-4.3391,-4.3527,-4.3626,-4.3712,-4.3767,-4.3906,-4.3993,-4.3995,-4.4088,-4.421,-4.4319,-4.447,-4.4592,-4.4846,-4.49,-4.5043,-4.5029,-4.5195,-4.5051,-4.5051,-4.5039,-4.5033,-4.5049,-4.5225,-4.523,-4.5234,-4.5237,0,-4.3176,-4.3195,-4.3413,-4.3498,-4.3524,-4.3669,-4.3744,-4.3866,-4.3894,-4.4067,-4.4108,-4.4155,-4.4312,-4.4338,-4.4524,-4.4534,-4.4785,-4.4764,-4.4751,-4.475,-4.4905,-4.4893,-4.5396,-4.5464,-4.5027,-4.5031,-4.5034,0,-4.2861,-4.3041,-4.3062,-4.3187,-4.3388,-4.3384,-4.3585,-4.3629,-4.371,-4.3846,-4.3806,-4.3936,-4.3949,-4.4084,-4.41,-4.4307,-4.4341,-4.4364,-4.4367,-4.4371,-4.4369,-4.4427,-4.441,-4.4361,-4.4359,-4.4356,-4.4354,0,-4.2526,-4.2747,-4.2949,-4.3003,-4.3114,-4.321,-4.3262,-4.3352,-4.3438,-4.3554,-4.3611,-4.3747,-4.3824,-4.3933,-4.3951,-4.3853,-4.4204,-4.4073,-4.4228,-4.4228,-4.431,-4.4305,-4.4738,-4.4351,-4.435,-4.435,-4.4349,0,-4.2278,-4.2388,-4.2676,-4.2768,-4.2827,-4.2961,-4.3092,-4.3212,-4.3311,-4.3328,-4.342,-4.3399,-4.3578,-4.3446,-4.3697,-4.3563,-4.3643,-4.3679,-4.369,-4.3714,-4.3568,-4.3815,-4.4218,-4.4265,-4.3728,-4.3723,-4.3719,0,-4.1892,-4.2186,-4.2184,-4.246,-4.26,-4.2545,-4.2694,-4.2781,-4.2816,-4.2943,-4.2982,-4.3129,-4.3035,-4.3086,-4.3205,-4.3254,-4.3427,-4.3231,-4.3426,-4.3433,-4.3405,-4.3776,-4.3832,-4.4125,-4.3652,-4.3659,-4.3664,0,-4.1596,-4.1724,-4.1773,-4.1836,-4.1947,-4.2065,-4.2235,-4.2377,-4.2462,-4.2564,-4.2712,-4.2916,-4.2856,-4.2939,-4.2937,-4.3061,-4.331,-4.2981,-4.2983,-4.3044,-4.362,-4.3672,-4.3721,-4.3282,-4.329,-4.3297,-4.3612,0,-4.1224,-4.1372,-4.1504,-4.1641,-4.1735,-4.1907,-4.193,-4.2026,-4.2012,-4.2044,-4.2259,-4.234,-4.2491,-4.2551,-4.254,-4.2812,-4.2772,-4.2706,-4.2586,-4.2826,-4.2931,-4.2974,-4.2427,-4.2423,-4.242,-4.2418,0,0,-4.0853,-4.1066,-4.1058,-4.1221,-4.13,-4.124,-4.1424,-4.1494,-4.1641,-4.1699,-4.1629,-4.1932,-4.2002,-4.2262,-4.2339,-4.2398,-4.2452,-4.2366,-4.271,-4.2742,-4.2773,-4.2884,-4.2928,-4.2413,-4.2412,-4.2411,-4.241,0,-4.0722,-4.0783,-4.0961,-4.1032,-4.1138,-4.1161,-4.1203,-4.1299,-4.1329,-4.1536,-4.149,-4.1623,-4.1864,-4.1946,-4.2019,-4.2333,-4.2295,-4.2377,-4.2538,-4.268,-4.2716,-4.2748,-4.2865,-4.2906,-4.2403,-4.2403,-4.2403,0,-4.0438,-4.0505,-4.0592,-4.0763,-4.0833,-4.0979,-4.0854,-4.1013,-4.1123,-4.1056,-4.1265,-4.1315,-4.1426,-4.1666,-4.1775,-4.1716,-4.2152,-4.2018,-4.2037,-4.2051,-4.219,-4.2234,-4.2272,-4.1764,-4.1761,-4.1759,0,0,-4.0323,-4.046,-4.0534,-4.0737,-4.0784,-4.0821,-4.0901,-4.0895,-4.0991,-4.1031,-4.1094,-4.1193,-4.1334,-4.1427,-4.156,-4.1819,-4.1846,-4.1938,-4.1968,-4.1992,-4.202,-4.2166,-4.2209,-4.175,-4.175,-4.175,0,0,-4.027,-4.0362,-4.0329,-4.0567,-4.0657,-4.0748,-4.0874,-4.0838,-4.0959,-4.0942,-4.0946,-4.0972,-4.1197,-4.1249,-4.1126,-4.1519,-4.1397,-4.1427,-4.1477,-4.1516,-4.1546,-4.1531,-4.1016,0,0,0,0,0,-4.0148,-4.0349,-4.0318,-4.0361,-4.0581,-4.0763,-4.0792,-4.0796,-4.0709,-4.0809,-4.0856,-4.0807,-4.1184,-4.1075,-4.1121,-4.126,-4.1636,-4.1656,-4.1675,-4.1801,-4.1841,-4.1874,0,0,0,0,0,0,-4.0165,-4.0217,-4.0313,-4.0411,-4.046,-4.0756,-4.0611,-4.0618,-4.0699,-4.0686,-4.0799,-4.0811,-4.0821,-4.1052,-4.1094,-4.1225,-4.1002,-4.1644,-4.1661,-4.1676,-4.1814,-4.1847,-4.1875,0,0,0,0,0,-4.0178,-4.022,-4.057,-4.0408,-4.0451,-4.0504,-4.0603,-4.0608,-4.0671,-4.0744,-4.0754,-4.0667,-4.0825,-4.086,-4.1077,-4.1206,-4.0974,-4.0989,-4.1655,-4.1668,-4.1681,-4.183,0,0,0,0,0,0,-4.0188,-4.0228,-4.0578,-4.0592,-4.0331,-4.0488,-4.0512,-4.0599,-4.0725,-4.0736,-4.0611,-4.0599,-4.083,-4.0856,-4.0884,-4.1199,-4.0951,-4.0966,-4.0976,-4.1665,-4.1676,-4.1685,0,0,0,0,0,0,-4.0205,-4.0239,-4.0585,-4.0488,-4.049,-4.0473,-4.0495,-4.068,-4.0727,-4.0584,-4.0578,-4.0604,-4.0791,-4.0855,-4.0876,-4.1165,-4.0933,-4.0948,-4.0958,-4.0965,-4.1674,-4.1682,0,0,0,0,0,0,-4.022,-4.0249,-4.0484,-4.0487,-4.0488,-4.064,-4.0637,-4.0864,-4.0638,-4.058,-4.0618,-4.0609,-4.0791,-4.0812,-4.0871,-4.1151,-4.1162,-4.0933,-4.0944,-4.0951,-4.0956,0,0,0,0,0,0,0,-4.0232,-4.0031,-4.0498,-4.0485,-4.0486,-4.0716,-4.072,-4.0723,-4.0636,-4.0628,-4.062,-4.0613,-4.0848,-4.0864,-4.0881,-4.114,0,0,-4.0932,-4.0939,0,0,0,0,0,0,0,0,-4.0019,-4.0028,-4.0499,-4.0501,-4.0504,-4.0717,-4.072,-4.0723,-4.0634,-4.0628,-4.0622,-4.0616,-4.0852,-4.0865,-4.0879,0,0,0,0,0,0,0,0,0,0,0,0,0,0,0,-4.0499,-4.0501,0,-4.0717,-4.072,-4.0722,-4.0634,-4.0628,-4.0623,-4.0618,-4.0856,-4.0867,-4.0878,0,0,0,0,0,0,0,0,0,0,0,0,0,0,0,0,0,0,0,0,0,0,0,0,0,0,0,0,0,0,0,0,0,0,0,0,0,0,0,0,0,0,0,0,0,0,0,0,0,0,0,0,0,0,0,0,0,0,0,0,0,0,0,0,0,0,0,0,0]}],[{"header":{"parameterUnit":"kt","parameterCategory":2,"dx":1,"dy":1,"la1":30.253999710083008,"la2":30.299108505249023,"lo1":-89.0895004272461,"lo2":-89.04439544677734,"nx":28,"ny":28,"refTime":"2022-10-13T21:00:00:Z","depth":0,"parameterNumber":2,"parameterNumberName":"V-component_of_WINDS"},"data":[-1.8036,-1.8021,-1.7995,-1.7964,-1.7934,-1.7908,-1.7889,-1.7862,-1.7833,-1.7797,-1.777,-1.774,-1.7699,-1.7658,-1.7627,-1.7613,-1.7601,-1.7615,-1.7596,-1.7561,-1.7554,-1.7547,-1.755,-1.7613,-1.7613,-1.7636,-1.7636,-1.7636,-1.8011,-1.7983,-1.7959,-1.7918,-1.7897,-1.7868,-1.7831,-1.7815,-1.7791,-1.7756,-1.7729,-1.7693,-1.7661,-1.7614,-1.7577,-1.7566,-1.7549,-1.7558,-1.7557,-1.7551,-1.7513,-1.7516,-1.7573,-1.7573,-1.7573,-1.7573,-1.7573,-1.7573,-1.7958,-1.795,-1.791,-1.7884,-1.7856,-1.7828,-1.7814,-1.7778,-1.7753,-1.7715,-1.7686,-1.7658,-1.7616,-1.7558,-1.7531,-1.7506,-1.7491,-1.7491,-1.7491,-1.7491,-1.7495,-1.7463,-1.7499,-1.7499,-1.7498,-1.7498,-1.7498,0,-1.791,-1.7888,-1.7864,-1.7832,-1.7811,-1.7783,-1.7752,-1.7743,-1.7686,-1.7668,-1.7638,-1.7616,-1.7572,-1.7539,-1.7499,-1.747,-1.7435,-1.7429,-1.7429,-1.7441,-1.7458,-1.7447,-1.7384,-1.7428,-1.7427,-1.7426,-1.7426,-1.7426,-1.7852,-1.7847,-1.7792,-1.7779,-1.7755,-1.7734,-1.7715,-1.7666,-1.7648,-1.7601,-1.7595,-1.7563,-1.7534,-1.749,-1.7445,-1.7411,-1.7393,-1.7413,-1.7388,-1.74,-1.7391,-1.7391,-1.7389,-1.7418,-1.7419,-1.742,-1.742,0,-1.7822,-1.7779,-1.7761,-1.7707,-1.7693,-1.7689,-1.7641,-1.763,-1.7596,-1.7576,-1.7568,-1.7513,-1.7484,-1.7436,-1.7393,-1.7368,-1.7356,-1.7341,-1.737,-1.7364,-1.7375,-1.7374,-1.7423,-1.7426,-1.7362,-1.7362,-1.7363,0,-1.7755,-1.775,-1.7685,-1.7677,-1.7668,-1.7619,-1.7611,-1.7581,-1.7545,-1.7529,-1.7482,-1.7468,-1.7409,-1.7386,-1.735,-1.7332,-1.7324,-1.7303,-1.7293,-1.7307,-1.7309,-1.7294,-1.729,-1.7274,-1.7274,-1.7273,-1.7273,0,-1.7711,-1.767,-1.7658,-1.7641,-1.7582,-1.7577,-1.7552,-1.7511,-1.7493,-1.7462,-1.7449,-1.7416,-1.7397,-1.7371,-1.7325,-1.7309,-1.7302,-1.7271,-1.7281,-1.7282,-1.728,-1.7281,-1.7338,-1.7273,-1.7273,-1.7273,-1.7273,0,-1.7649,-1.7621,-1.761,-1.7559,-1.755,-1.7542,-1.7507,-1.7489,-1.7449,-1.7426,-1.7401,-1.7364,-1.7346,-1.7318,-1.7292,-1.7285,-1.7268,-1.7247,-1.7247,-1.7241,-1.7211,-1.7248,-1.7308,-1.7312,-1.7237,-1.7236,-1.7236,0,-1.761,-1.7588,-1.7545,-1.7535,-1.7518,-1.7467,-1.7457,-1.7423,-1.7392,-1.7371,-1.7336,-1.7313,-1.7282,-1.7268,-1.7262,-1.7223,-1.7232,-1.7221,-1.7187,-1.7187,-1.7198,-1.7254,-1.7274,-1.7301,-1.7232,-1.7232,-1.7232,0,-1.7574,-1.7504,-1.7505,-1.7483,-1.7433,-1.7419,-1.7407,-1.7373,-1.7362,-1.733,-1.7317,-1.7284,-1.7259,-1.7237,-1.7203,-1.7199,-1.7225,-1.7172,-1.717,-1.7182,-1.7226,-1.7245,-1.725,-1.7202,-1.7203,-1.7203,-1.7229,0,-1.7487,-1.7471,-1.7473,-1.7429,-1.7411,-1.7403,-1.7353,-1.734,-1.731,-1.7277,-1.7258,-1.7218,-1.7183,-1.7177,-1.7147,-1.7153,-1.7144,-1.7118,-1.7087,-1.7125,-1.7132,-1.7135,-1.708,-1.7079,-1.7078,-1.7077,0,0,-1.7459,-1.7435,-1.7389,-1.7377,-1.7358,-1.7306,-1.7301,-1.7276,-1.7229,-1.7216,-1.7199,-1.7146,-1.7115,-1.7097,-1.7105,-1.7091,-1.7087,-1.7076,-1.7108,-1.7111,-1.7114,-1.7123,-1.7127,-1.7076,-1.7075,-1.7075,-1.7074,0,-1.7417,-1.7389,-1.7387,-1.7359,-1.7318,-1.7284,-1.7283,-1.7232,-1.7211,-1.7194,-1.7149,-1.7132,-1.7092,-1.7064,-1.7044,-1.7077,-1.7043,-1.7071,-1.7105,-1.7099,-1.7104,-1.7108,-1.7118,-1.7122,-1.7072,-1.7072,-1.7072,0,-1.7371,-1.7335,-1.7329,-1.7286,-1.7258,-1.7242,-1.7198,-1.7183,-1.717,-1.7112,-1.7095,-1.7066,-1.7024,-1.7015,-1.7009,-1.6992,-1.7007,-1.6994,-1.6999,-1.6997,-1.6989,-1.6995,-1.7001,-1.6929,-1.6929,-1.6929,0,0,-1.7342,-1.7327,-1.7272,-1.7273,-1.7259,-1.7208,-1.7195,-1.7164,-1.7128,-1.7115,-1.7077,-1.7043,-1.7018,-1.7004,-1.6979,-1.6976,-1.6962,-1.6979,-1.6985,-1.6991,-1.6992,-1.6986,-1.6992,-1.6927,-1.6927,-1.6927,0,0,-1.7327,-1.7264,-1.724,-1.7236,-1.7205,-1.715,-1.7152,-1.7121,-1.7094,-1.7089,-1.7034,-1.7022,-1.7013,-1.6986,-1.6977,-1.6966,-1.6937,-1.6938,-1.6984,-1.6992,-1.6999,-1.7004,-1.6925,0,0,0,0,0,-1.7259,-1.7271,-1.7251,-1.7243,-1.7188,-1.7162,-1.7154,-1.711,-1.7089,-1.7092,-1.7055,-1.7021,-1.697,-1.6961,-1.6953,-1.6963,-1.6913,-1.6916,-1.6918,-1.6977,-1.6986,-1.6993,0,0,0,0,0,0,-1.7255,-1.7246,-1.725,-1.7197,-1.7184,-1.7161,-1.7116,-1.7104,-1.7088,-1.7082,-1.7029,-1.7019,-1.698,-1.6962,-1.6955,-1.6965,-1.6927,-1.6914,-1.6917,-1.6918,-1.698,-1.6987,-1.6994,0,0,0,0,0,-1.7252,-1.7245,-1.7169,-1.7196,-1.7185,-1.7129,-1.7115,-1.7105,-1.7091,-1.7035,-1.7024,-1.7059,-1.6981,-1.6973,-1.6958,-1.6969,-1.6931,-1.6929,-1.6916,-1.6917,-1.6919,-1.6984,0,0,0,0,0,0,-1.725,-1.7234,-1.7166,-1.7161,-1.7188,-1.7129,-1.7119,-1.7106,-1.7044,-1.7034,-1.7063,-1.7058,-1.6983,-1.6976,-1.6969,-1.6973,-1.6934,-1.6932,-1.6931,-1.6917,-1.6918,-1.692,0,0,0,0,0,0,-1.7238,-1.7231,-1.7163,-1.7156,-1.7149,-1.713,-1.712,-1.7101,-1.7044,-1.7076,-1.707,-1.7061,-1.6991,-1.6978,-1.6973,-1.6944,-1.6937,-1.6935,-1.6933,-1.6932,-1.6918,-1.6919,0,0,0,0,0,0,-1.7234,-1.7227,-1.7157,-1.7152,-1.7146,-1.7085,-1.7112,-1.7058,-1.704,-1.7079,-1.7037,-1.7036,-1.6995,-1.6988,-1.6975,-1.6949,-1.6946,-1.6937,-1.6935,-1.6934,-1.6934,0,0,0,0,0,0,0,-1.7231,-1.7286,-1.7196,-1.7149,-1.7144,-1.7113,-1.7112,-1.7111,-1.704,-1.7038,-1.7037,-1.7036,-1.6949,-1.6947,-1.6945,-1.6954,0,0,-1.6937,-1.6936,0,0,0,0,0,0,0,0,-1.7288,-1.7287,-1.7196,-1.7195,-1.7194,-1.7113,-1.7112,-1.7111,-1.7039,-1.7038,-1.7038,-1.7037,-1.6949,-1.6947,-1.6945,0,0,0,0,0,0,0,0,0,0,0,0,0,0,0,-1.7196,-1.7195,0,-1.7113,-1.7112,-1.7111,-1.7039,-1.7039,-1.7038,-1.7037,-1.6948,-1.6947,-1.6945,0,0,0,0,0,0,0,0,0,0,0,0,0,0,0,0,0,0,0,0,0,0,0,0,0,0,0,0,0,0,0,0,0,0,0,0,0,0,0,0,0,0,0,0,0,0,0,0,0,0,0,0,0,0,0,0,0,0,0,0,0,0,0,0,0,0,0,0,0]}]]]